| time (UTC) | temp C | wind direction | speed KPH | gust KPH | rain 1hr cm | rain 24hr cm | rain mn cm | humidity % | barometer mb |
| 20260503041032 | 28 | 129 | 0.0 | 1.6 | 0.00 | 0.00 | 0.00 | 22 | 1005.3 |
| 20260503040030 | 28 | 161 | 0.0 | 1.6 | 0.00 | 0.00 | 0.00 | 22 | 1005.1 |
| 20260503035021 | 28 | 103 | 1.6 | 1.6 | 0.00 | 0.00 | 0.00 | 22 | 1005.1 |
| 20260503034028 | 28 | 55 | 1.6 | 1.6 | 0.00 | 0.00 | 0.00 | 22 | 1005.1 |
| 20260503033024 | 28 | 100 | 1.6 | 1.6 | 0.00 | 0.00 | 0.00 | 21 | 1005.1 |
| 20260503032022 | 29 | 100 | 1.6 | 1.6 | 0.00 | 0.00 | 0.00 | 21 | 1005.1 |
| 20260503031019 | 29 | 22 | 1.6 | 1.6 | 0.00 | 0.00 | 0.00 | 21 | 1005.0 |
| 20260503030045 | 29 | 66 | 1.6 | 3.2 | 0.00 | 0.00 | 0.00 | 20 | 1004.9 |
| 20260503025044 | 30 | 124 | 1.6 | 1.6 | 0.00 | 0.00 | 0.00 | 20 | 1004.8 |
| 20260503024040 | 30 | 73 | 0.0 | 1.6 | 0.00 | 0.00 | 0.00 | 19 | 1004.6 |
| 20260503023037 | 30 | 52 | 0.0 | 1.6 | 0.00 | 0.00 | 0.00 | 19 | 1004.6 |
| 20260503022027 | 30 | 56 | 0.0 | 0.0 | 0.00 | 0.00 | 0.00 | 19 | 1004.6 |
| 20260503021042 | 30 | 35 | 0.0 | 1.6 | 0.00 | 0.00 | 0.00 | 17 | 1004.6 |
| 20260503020021 | 30 | 82 | 1.6 | 1.6 | 0.00 | 0.00 | 0.00 | 18 | 1004.6 |
| 20260503015030 | 31 | 54 | 0.0 | 1.6 | 0.00 | 0.00 | 0.00 | 16 | 1004.8 |
| 20260503014053 | 31 | 149 | 0.0 | 1.6 | 0.00 | 0.00 | 0.00 | 16 | 1004.8 |
| 20260503013023 | 31 | 60 | 0.0 | 1.6 | 0.00 | 0.00 | 0.00 | 16 | 1004.8 |
| 20260503012040 | 31 | 315 | 1.6 | 1.6 | 0.00 | 0.00 | 0.00 | 16 | 1004.8 |
| 20260503011038 | 31 | 237 | 1.6 | 1.6 | 0.00 | 0.00 | 0.00 | 16 | 1004.9 |
| 20260503010024 | 31 | 214 | 1.6 | 1.6 | 0.00 | 0.00 | 0.00 | 16 | 1004.9 |
| 20260503005035 | 31 | 203 | 0.0 | 1.6 | 0.00 | 0.00 | 0.00 | 16 | 1004.9 |
| 20260503004022 | 31 | 314 | 0.0 | 1.6 | 0.00 | 0.00 | 0.00 | 16 | 1004.8 |
| 20260503003030 | 31 | 199 | 0.0 | 1.6 | 0.00 | 0.00 | 0.00 | 15 | 1004.8 |
| 20260503002029 | 31 | 162 | 1.6 | 1.6 | 0.00 | 0.00 | 0.00 | 15 | 1004.8 |
| 20260503001041 | 32 | 192 | 1.6 | 1.6 | 0.00 | 0.00 | 0.00 | 15 | 1004.9 |
| 20260503000029 | 32 | 212 | 3.2 | 3.2 | 0.00 | 0.00 | 0.00 | 15 | 1004.8 |
| 20260502235103 | 32 | 14 | 1.6 | 1.6 | 0.00 | 0.00 | 0.00 | 14 | 1004.8 |
| 20260502234022 | 32 | 223 | 4.8 | 4.8 | 0.00 | 0.00 | 0.00 | 14 | 1004.9 |
| 20260502233047 | 32 | 229 | 3.2 | 3.2 | 0.00 | 0.00 | 0.00 | 13 | 1004.9 |
| 20260502232024 | 32 | 207 | 3.2 | 3.2 | 0.00 | 0.00 | 0.00 | 13 | 1005.0 |
| 20260502231024 | 32 | 235 | 1.6 | 1.6 | 0.00 | 0.00 | 0.00 | 13 | 1005.2 |
| 20260502230031 | 32 | 338 | 3.2 | 3.2 | 0.00 | 0.00 | 0.00 | 11 | 1005.3 |
| 20260502225029 | 32 | 221 | 3.2 | 3.2 | 0.00 | 0.00 | 0.00 | 13 | 1005.3 |
| 20260502224044 | 32 | 126 | 1.6 | 1.6 | 0.00 | 0.00 | 0.00 | 12 | 1005.3 |
| 20260502223021 | 32 | 303 | 1.6 | 1.6 | 0.00 | 0.00 | 0.00 | 12 | 1005.4 |
| 20260502222022 | 32 | 162 | 1.6 | 3.2 | 0.00 | 0.00 | 0.00 | 13 | 1005.5 |
| 20260502221030 | 32 | 211 | 3.2 | 3.2 | 0.00 | 0.00 | 0.00 | 13 | 1005.7 |
| 20260502220027 | 32 | 249 | 3.2 | 3.2 | 0.00 | 0.00 | 0.00 | 13 | 1005.8 |
| 20260502215035 | 32 | 87 | 3.2 | 3.2 | 0.00 | 0.00 | 0.00 | 12 | 1006.1 |
| 20260502214039 | 32 | 186 | 3.2 | 3.2 | 0.00 | 0.00 | 0.00 | 13 | 1006.3 |
| 20260502213034 | 32 | 250 | 3.2 | 3.2 | 0.00 | 0.00 | 0.00 | 13 | 1006.4 |
| 20260502212025 | 32 | 140 | 1.6 | 1.6 | 0.00 | 0.00 | 0.00 | 14 | 1006.4 |
| 20260502211028 | 32 | 272 | 3.2 | 3.2 | 0.00 | 0.00 | 0.00 | 15 | 1006.4 |
| 20260502210031 | 31 | 360 | 1.6 | 1.6 | 0.00 | 0.00 | 0.00 | 15 | 1006.7 |
| 20260502205051 | 31 | 133 | 1.6 | 3.2 | 0.00 | 0.00 | 0.00 | 16 | 1006.9 |
| 20260502204030 | 32 | 98 | 3.2 | 3.2 | 0.00 | 0.00 | 0.00 | 16 | 1007.0 |
| 20260502203022 | 32 | 230 | 3.2 | 3.2 | 0.00 | 0.00 | 0.00 | 18 | 1007.0 |
| 20260502202023 | 31 | 217 | 1.6 | 3.2 | 0.00 | 0.00 | 0.00 | 16 | 1007.3 |
| 20260502201022 | 32 | 58 | 1.6 | 1.6 | 0.00 | 0.00 | 0.00 | 16 | 1007.4 |
| 20260502200019 | 31 | 252 | 3.2 | 3.2 | 0.00 | 0.00 | 0.00 | 17 | 1007.5 |
| 20260502195026 | 31 | 260 | 3.2 | 4.8 | 0.00 | 0.00 | 0.00 | 18 | 1007.7 |
| 20260502194019 | 31 | 219 | 3.2 | 4.8 | 0.00 | 0.00 | 0.00 | 18 | 1007.7 |
| 20260502193025 | 31 | 217 | 3.2 | 3.2 | 0.00 | 0.00 | 0.00 | 18 | 1007.9 |
| 20260502192032 | 31 | 131 | 3.2 | 3.2 | 0.00 | 0.00 | 0.00 | 19 | 1008.0 |
| 20260502191037 | 30 | 219 | 3.2 | 3.2 | 0.00 | 0.00 | 0.00 | 20 | 1008.1 |
| 20260502190023 | 30 | 143 | 3.2 | 3.2 | 0.00 | 0.00 | 0.00 | 21 | 1008.3 |
| 20260502185038 | 30 | 191 | 4.8 | 4.8 | 0.00 | 0.00 | 0.00 | 21 | 1008.4 |
| 20260502184022 | 30 | 204 | 3.2 | 4.8 | 0.00 | 0.00 | 0.00 | 22 | 1008.5 |
| 20260502183030 | 30 | 216 | 3.2 | 4.8 | 0.00 | 0.00 | 0.00 | 22 | 1008.8 |
| 20260502182034 | 30 | 259 | 4.8 | 4.8 | 0.00 | 0.00 | 0.00 | 23 | 1008.9 |
| 20260502181019 | 29 | 148 | 3.2 | 4.8 | 0.00 | 0.00 | 0.00 | 23 | 1008.9 |
| 20260502180114 | 29 | 179 | 4.8 | 4.8 | 0.00 | 0.00 | 0.00 | 23 | 1009.0 |
| 20260502164022 | 27 | 199 | 6.4 | 6.4 | 0.00 | 0.00 | 0.00 | 26 | 1009.1 |
| 20260502163041 | 27 | 180 | 4.8 | 6.4 | 0.00 | 0.00 | 0.00 | 27 | 1009.0 |
| 20260502162048 | 27 | 130 | 6.4 | 6.4 | 0.00 | 0.00 | 0.00 | 27 | 1008.9 |
| 20260502161042 | 27 | 181 | 4.8 | 4.8 | 0.00 | 0.00 | 0.00 | 27 | 1008.9 |
| 20260502152044 | 25 | 40 | 1.6 | 1.6 | 0.00 | 0.00 | 0.00 | 27 | 1008.9 |
| 20260502151049 | 25 | 26 | 3.2 | 3.2 | 0.00 | 0.00 | 0.00 | 28 | 1008.8 |
| 20260502123043 | 19 | 0.0 | 0.0 | 0.00 | 0.00 | 0.00 | 30 | 1007.5 | |
| 20260502122020 | 19 | 0.0 | 0.0 | 0.00 | 0.00 | 0.00 | 30 | 1007.4 | |
| 20260502121025 | 19 | 0.0 | 0.0 | 0.00 | 0.00 | 0.00 | 28 | 1007.4 | |
| 20260502115037 | 20 | 0.0 | 0.0 | 0.00 | 0.00 | 0.00 | 27 | 1007.3 | |
| 20260502114035 | 20 | 45 | 0.0 | 0.0 | 0.00 | 0.00 | 0.00 | 27 | 1007.2 |
| 20260502113053 | 20 | 35 | 0.0 | 0.0 | 0.00 | 0.00 | 0.00 | 27 | 1007.2 |
| 20260502112023 | 20 | 0.0 | 0.0 | 0.00 | 0.00 | 0.00 | 27 | 1007.2 | |
| 20260502111023 | 20 | 0.0 | 0.0 | 0.00 | 0.00 | 0.00 | 26 | 1007.3 | |
| 20260502110035 | 20 | 10 | 0.0 | 0.0 | 0.00 | 0.00 | 0.00 | 26 | 1007.3 |
| 20260502105043 | 21 | 2 | 0.0 | 0.0 | 0.00 | 0.00 | 0.00 | 26 | 1007.4 |
| 20260502104029 | 21 | 14 | 0.0 | 0.0 | 0.00 | 0.00 | 0.00 | 26 | 1007.2 |
| 20260502103020 | 21 | 327 | 0.0 | 0.0 | 0.00 | 0.00 | 0.00 | 26 | 1007.1 |
| 20260502102020 | 21 | 342 | 1.6 | 1.6 | 0.00 | 0.00 | 0.00 | 26 | 1007.0 |
| 20260502101032 | 21 | 44 | 1.6 | 1.6 | 0.00 | 0.00 | 0.00 | 26 | 1007.0 |
| 20260502091036 | 22 | 0.0 | 0.0 | 0.00 | 0.00 | 0.00 | 24 | 1006.9 | |
| 20260502071051 | 23 | 35 | 0.0 | 0.0 | 0.00 | 0.00 | 0.00 | 23 | 1007.0 |
| 20260502070036 | 24 | 37 | 0.0 | 0.0 | 0.00 | 0.00 | 0.00 | 23 | 1007.0 |
| 20260502065022 | 24 | 45 | 0.0 | 0.0 | 0.00 | 0.00 | 0.00 | 23 | 1007.1 |
| 20260502064027 | 24 | 8 | 0.0 | 0.0 | 0.00 | 0.00 | 0.00 | 23 | 1006.9 |
| 20260502063033 | 24 | 21 | 0.0 | 0.0 | 0.00 | 0.00 | 0.00 | 23 | 1006.8 |
| 20260502062020 | 24 | 20 | 0.0 | 0.0 | 0.00 | 0.00 | 0.00 | 23 | 1006.7 |
| 20260502061026 | 24 | 40 | 0.0 | 1.6 | 0.00 | 0.00 | 0.00 | 23 | 1006.7 |
| 20260502060023 | 25 | 0.0 | 0.0 | 0.00 | 0.00 | 0.00 | 23 | 1006.6 | |
| 20260502055023 | 25 | 350 | 0.0 | 0.0 | 0.00 | 0.00 | 0.00 | 23 | 1006.6 |
| 20260502054041 | 25 | 16 | 0.0 | 0.0 | 0.00 | 0.00 | 0.00 | 22 | 1006.5 |
| 20260502053045 | 25 | 19 | 0.0 | 0.0 | 0.00 | 0.00 | 0.00 | 22 | 1006.5 |
| 20260502052044 | 25 | 6 | 0.0 | 1.6 | 0.00 | 0.00 | 0.00 | 22 | |
| 20260502051047 | 25 | 24 | 0.0 | 1.6 | 0.00 | 0.00 | 0.00 | 22 | 1006.4 |
| 20260502050101 | 25 | 0.0 | 0.0 | 0.00 | 0.00 | 0.00 | 22 | 1006.4 | |
| 20260502045026 | 25 | 352 | 0.0 | 0.0 | 0.00 | 0.00 | 0.00 | 22 | 1006.3 |
| 20260502044103 | 26 | 358 | 0.0 | 1.6 | 0.00 | 0.00 | 0.00 | 23 | 1006.3 |
| 20260502043032 | 26 | 22 | 0.0 | 1.6 | 0.00 | 0.00 | 0.00 | 22 | 1006.1 |
| 20260502042127 | 26 | 23 | 0.0 | 0.0 | 0.00 | 0.00 | 0.00 | 22 |